Location: Izdebno
(52.6670°N, 16.2170°E)
Time: 03:34:41
(UTC+02:00)

Transit 2A - Pass Details

Date: 02 March 2024
Orbit: 596 x 956 km, 66.7° (Epoch: 21 April)

Event Time Altitude Azimuth Distance (km) Brightness Sun altitude
Rises 02:32:32 0° 319° (NW) 2,984 - -35.6°
Reaches altitude 10° 02:34:44 10° 318° (NW) 2,112 - -35.4°
Maximum altitude 02:39:31 75° 234° (SW) 751 - -34.9°
Drops below altitude 10° 02:44:48 10° 150° (SSE) 2,327 - -34.3°
Sets 02:47:20 0° 148° (SSE) 3,313 - -34.0°
